Weather History for Wenatchee, WA

Change the Weather History Date:

Friday, March 2, 2012

  Actual Average Record
Temperature  
Mean Temperature 38 °F 35 °F  
Max Temperature 47 °F 44 °F 62 °F (1968)
Min Temperature 29 °F 26 °F 11 °F (2014)
Degree Days  
Heating Degree Days 27 30  
Month to date heating degree days 58 61  
Since 1 July heating degree days 4496 5260  
Cooling Degree Days 0 0  
Month to date cooling degree days 0 0  
Year to date cooling degree days 0 0  
Moisture  
Dew Point 25 °F    
Average Humidity 53    
Maximum Humidity 64    
Minimum Humidity 42    
Precipitation  
Precipitation 0.00 in 0.05 in 0.38 in (2014)
Month to date precipitation 0.00 0.10  
Year to date precipitation 1.65 3.43  
Snow  
Snow 0.00 in 0.10 in - ()
Month to date snowfall 0.3  
Since 1 July snowfall 46.7  
Snow Depth -    
Sea Level Pressure  
Sea Level Pressure 30.26 in    
Wind  
Wind Speed 2 mph (NE)    
Max Wind Speed 12 mph    
Max Gust Speed 28 mph    
Visibility 10 miles    
Events      
T = Trace of Precipitation, MM = Missing Value Source: NWS Daily Summary

Daily Weather History Graph

Daily Weather History Graph

Search for Another Location

Airport:

Trip Planner

Search our weather history database for the weather conditions in past years. The results will help you decide how hot, cold, wet, or windy it might be!

Date:

Astronomy

Mar. 02, 2012 Rise Set
Actual Time 6:38 AM PST 5:48 PM PST
Civil Twilight 6:07 AM PST 6:19 PM PST
Nautical Twilight 5:31 AM PST 6:54 PM PST
Astronomical Twilight 4:56 AM PST 7:30 PM PST
Moon 11:46 AM PST (3/2) 2:51 AM PST (3/2)
Length of Visible Light 12h 11m
Length of Day
11h 10m
Waxing Gibbous, 67% of the Moon is Illuminated
Mar 2
Waxing Gibbous
Mar 8
Full
Mar 14
Last Quarter
Mar 22
New
Mar 30
First Quarter

Hourly Weather History & Observations

Time (PST) Temp. Windchill Dew Point Humidity Pressure Visibility Wind Dir Wind Speed Gust Speed Precip Events Conditions
12:55 AM 33.1 °F 30.0 °F 21.0 °F 61% 30.25 in 10.0 mi NNE 3.5 mph - N/A   Clear
1:55 AM 32.0 °F 26.4 °F 21.9 °F 66% 30.26 in 10.0 mi NNW 5.8 mph - N/A   Clear
2:55 AM 33.1 °F 28.7 °F 21.9 °F 64% 30.27 in 10.0 mi ENE 4.6 mph - N/A   Mostly Cloudy
3:55 AM 35.1 °F - 19.9 °F 54% 30.27 in 10.0 mi Calm Calm - N/A   Scattered Clouds
4:55 AM 33.1 °F - 21.0 °F 61% 30.29 in 10.0 mi Calm Calm - N/A   Clear
5:55 AM 30.0 °F 26.5 °F 19.9 °F 66% 30.29 in 10.0 mi East 3.5 mph - N/A   Clear
6:55 AM 30.9 °F 27.5 °F 19.9 °F 64% 30.30 in 10.0 mi East 3.5 mph - N/A   Clear
7:55 AM 32.0 °F - 21.9 °F 66% 30.31 in 10.0 mi Calm Calm - N/A   Clear
8:55 AM 35.1 °F - 21.9 °F 59% 30.32 in 10.0 mi Calm Calm - N/A   Clear
9:55 AM 37.9 °F - 23.0 °F 55% 30.32 in 10.0 mi Calm Calm - N/A   Scattered Clouds
10:55 AM 39.9 °F - 24.1 °F 53% 30.31 in 10.0 mi Calm Calm - N/A   Clear
11:55 AM 42.1 °F - 25.0 °F 51% 30.29 in 10.0 mi Calm Calm - N/A   Mostly Cloudy
12:55 PM 44.1 °F - 24.1 °F 45% 30.27 in 10.0 mi Calm Calm - N/A   Partly Cloudy
1:55 PM 46.0 °F 44.8 °F 25.0 °F 44% 30.25 in 10.0 mi Variable 3.5 mph - N/A   Clear
2:55 PM 46.0 °F 43.9 °F 26.1 °F 46% 30.24 in 10.0 mi SE 4.6 mph - N/A   Clear
3:55 PM 46.9 °F - 26.1 °F 44% 30.24 in 10.0 mi East 3.5 mph - N/A   Clear
4:55 PM 46.9 °F - 26.1 °F 44% 30.22 in 10.0 mi East 3.5 mph - N/A   Clear
5:55 PM 45.0 °F - 26.1 °F 48% 30.23 in 10.0 mi Calm Calm - N/A   Clear
6:55 PM 43.0 °F 38.8 °F 30.0 °F 60% 30.24 in 10.0 mi NW 6.9 mph - N/A   Clear
7:55 PM 43.0 °F - 30.0 °F 60% 30.23 in 10.0 mi Calm Calm - N/A   Partly Cloudy
8:55 PM 42.1 °F 40.2 °F 28.0 °F 58% 30.24 in 10.0 mi Variable 3.5 mph - N/A   Clear
9:55 PM 39.9 °F 36.7 °F 28.9 °F 65% 30.23 in 10.0 mi NW 4.6 mph - N/A   Clear
10:55 PM 39.0 °F 36.8 °F 28.9 °F 67% 30.23 in 10.0 mi West 3.5 mph - N/A   Clear
11:55 PM 37.0 °F - 28.9 °F 73% 30.21 in 10.0 mi Calm Calm - N/A   Clear